Regional Weather Roundup
Issued by NWS

Home | Current Version | Previous Version | Text Only | Print | Product List | Glossary Off
Versions: 1 2 3 4 5 6 7 8 9 10 11 12 13 14 15 16 17 18 19 20 21 22 23 24 25 26 27 28 29 30 31 32 33 34 35 36 37 38 39 40 41 42 43 44 45 46 47 48 49 50

000
ASUS43 KMKX 280211
RWRWI

WISCONSIN REGIONAL WEATHER ROUNDUP
NATIONAL WEATHER SERVICE MILWAUKEE/SULLIVAN WI
900 PM CDT THU JUL 27 2017

NOTE: "FAIR" INDICATES FEW OR NO CLOUDS BELOW 12,000 FEET WITH NO
SIGNIFICANT WEATHER AND/OR OBSTRUCTIONS TO VISIBILITY.

WIZ001-002-006>008-014>016-023>028-280300-
NORTHWEST WISCONSIN

CITY           SKY/WX    TMP DP  RH WIND       PRES   REMARKS
SUPERIOR ARPT  NOT AVBL
ASHLAND        CLEAR     61  58  90 S3        30.05F
HAYWARD        PTCLDY    66  58  75 NE6       30.08R
SIREN          CLEAR     70  59  69 CALM      30.05S
CUMBERLAND     CLEAR     70  59  68 N3        30.06R
RICE LAKE      CLEAR     69  61  76 N5        30.06R
CHETEK         CLEAR     74  61  63 N5        30.04R
LADYSMITH      PTCLDY    70  62  76 N6        30.07R
EAU CLAIRE     CLEAR     72  63  73 N5        30.01R
MENOMONIE      CLEAR     74  61  63 NW5       30.02S
NEW RICHMOND   CLEAR     70  61  74 NE3       30.04S
OSCEOLA        CLEAR     73  60  63 CALM      30.06R
$$

WIZ003>005-009-010-017-018-280300-
NORTH CENTRAL WISCONSIN

CITY           SKY/WX    TMP DP  RH WIND       PRES   REMARKS
MANITOWISH WTR PTCLDY    67  61  80 NE3       30.07F
ARBOR VITAE    PTCLDY    72  59  63 NE3       30.07R
WOODRUFF       PTCLDY    72  59  63 NE3       30.07R
RHINELANDER    MOCLDY    69  60  73 NE3       30.07S
EAGLE RIVER    PTCLDY    65  52  62 NE3       30.08R
LAND O LAKES   PTCLDY    67  54  62 CALM      30.10S
PHILLIPS       CLEAR     66  61  83 N5        30.06R
TOMAHAWK         N/A     68  58  68 CALM      30.06R
MEDFORD        PTCLDY    67  60  77 CALM      30.04R
MERRILL        MOCLDY    68  64  88 NE6       30.05R
$$

WIZ029-030-035-036-043>047-280300-
CENTRAL WISCONSIN

CITY           SKY/WX    TMP DP  RH WIND       PRES   REMARKS
WAUSAU         PTCLDY    70  61  73 E3        30.01S
MOSINEE        MOCLDY    68  63  83 E6        30.03S
MARSHFIELD     MOCLDY    72  59  63 E3        30.01S
STEVENS POINT  CLOUDY    70  63  77 NE3       30.02S
WAUPACA        MOCLDY    71  63  74 E6        30.01S
WAUTOMA        PTCLDY    68  62  81 CALM      30.01R
WISC RAPIDS    PTCLDY    69  62  78 CALM      30.02S
CAMP DOUGLAS   CLEAR     68  65  89 SE6       30.00S
$$

WIZ011>013-019>022-031-037>040-048>050-280300-
NORTHEAST WISCONSIN

CITY           SKY/WX    TMP DP  RH WIND       PRES   REMARKS
ANTIGO         CLOUDY    67  59  74 E6        30.06R
SHAWANO        PTCLDY    70  58  66 E5        30.02R
OCONTO         CLOUDY    70  57  63 E6        30.01S
STURGEON BAY     N/A     66  55  67 NE8       30.03R
GREEN BAY      PTCLDY    70  64  81 E6        30.01S
MANITOWOC      PTCLDY    68  59  73 N5        30.01S
APPLETON       MOCLDY    72  55  56 VRB5      30.00S
CLINTONVILLE   PTCLDY   N/A N/A N/A CALM      30.01S
OSHKOSH        PTCLDY    73  61  65 E9        30.00S
$$

WIZ032>034-041-042-053>061-280300-
SOUTHWEST WISCONSIN

CITY           SKY/WX    TMP DP  RH WIND       PRES   REMARKS
LA CROSSE      PTCLDY    78  64  61 N5        29.97S HX  80
SPARTA         CLEAR     68  65  90 CALM      30.00S
VIROQUA        CLEAR     70  65  85 E5        30.01S
BOSCOBEL       CLOUDY    76  67  73 N3        29.98S
PRAIRIE DU CHI MOCLDY    73  64  75 CALM      29.97S
PLATTEVILLE    PTCLDY    73  66  77 NE7       29.99S
$$

WIZ056-057-062-063-064-067-068-280300-
SOUTH CENTRAL WISCONSIN

CITY           SKY/WX    TMP DP  RH WIND       PRES   REMARKS
REEDSBURG      CLEAR     72  64  75 CALM      29.99S
BARABOO/DELLS  CLEAR     68  62  79 CALM      30.00S
LONE ROCK      MOCLDY    70  66  87 CALM      29.98S
MINERAL POINT  CLEAR     72  64  78 NE5       30.00S
MADISON        PTCLDY    70  59  68 NE6       29.99R
MIDDLETON      CLEAR     72  61  68 E3        30.00S
WATERTOWN      CLEAR     69  57  65 NE6       29.99S
MONROE         CLEAR     70  61  73 NE6       29.98S
JANESVILLE     PTCLDY    70  55  60 NE6       29.97S
$$

WIZ051-052-058>065-066-070>072-280300-
SOUTHEAST WISCONSIN

CITY           SKY/WX    TMP DP  RH WIND       PRES   REMARKS
MILWAUKEE      MOCLDY    71  60  68 N13       29.96F
WAUKESHA       CLEAR     68  55  64 NE7       29.99F
MILWAUKEE/TIMM CLEAR     70  54  56 NE10      29.99S
RACINE         PTCLDY    68  62  81 N12       29.98S
KENOSHA        CLEAR     69  56  62 N9        29.97S
FOND DU LAC    PTCLDY    72  58  61 E6        30.00S
SHEBOYGAN      PTCLDY    66  60  81 N6        30.00S
WEST BEND      PTCLDY    68  55  64 N7        30.00S
JUNEAU         CLEAR     69  56  63 CALM      30.01S
$$

LSZ147-162-280300-
LAKE SUPERIOR

STATION/POSITION TIME  TEMP    WIND        PRES    WAVE
                       AIR SEA DIR/SP/G            HT/PER
                 (UTC) (F)     (DEG/KT/KT) (MB)    (FT/S)
W MID LAKE BUOY  0150   58 55  320/  4/  4 1018.0F   0
DEVILS ISLAND    0200   63      30/  5/  7 1018.2R
PORT WING        0022   67      10/ 14/ 23 1018.3
SAXON HARBOR     0140   66     250/  2/  5 1017.6S
$$

LMZ867-665-643>646-280300-
LAKE MICHIGAN

STATION/POSITION TIME  TEMP    WIND        PRES    WAVE
                       AIR SEA DIR/SP/G            HT/PER
                 (UTC) (F)     (DEG/KT/KT) (MB)    (FT/S)
CHAMBERS ISLAND  0140   70      20/ 13/ 16 1015.9S
S GREEN BAY BUOY 0200   72 72   80/ 17/ 23 1015.8
N MID LAKE BUOY  0150   67 66   10/ 14/ 17 1016.5S   2/ 4
NORTHPORT PIER   0140   69     360/ 10/ 13 1016.3S
KEWAUNEE LAKESHO 0142   67      20/  3/  6 1015.3S
SHEBOYGAN LAKESH 0200   69      10/ 10/ 11 1015.2S
PORT WASHINGTON  0140   72      10/  5/ 11 1015.9S
ATWATER BUOY     0009   70 69   10/ 14/ 19 1015.2S
MILWAUKEE LAKESH 0150   70     360/ 14/ 15   N/A
S MID LAKE BUOY  0150   72 71   20/ 17/ 21 1012.9F   5/ 6
KENOSHA   LAKESH 0200   71      10/ 17/ 19 1013.9
$$

TC  - TEMPERATURE IN CELSIUS
VSB - VISIBILITY IN STATUTE MILES
WCI - WIND CHILL INDEX
HX  - HEAT INDEX




USA.gov is the U.S. government's official web portal to all federal, state and local government web resources and services.